Theta_e
309 309 309 309 310 310 310 310 309 308 308 308 309 312 312 313 314 313 314 314 316 316 313 316 316 316 315 317 318 317 314 315 318 320 319 315 316 314 312 315 315 314 314 312 312
310 310 310 311 311 311 311 311 310 310 309 308 307 309 312 312 313 315 315 315 315 313 314 315 314 314 314 318 317 317 315 317 317 317 317 315 314 313 315 313 313 314 308 310 309
311 311 311 311 311 311 311 311 311 310 310 309 308 308 312 312 319 317 317 316 314 312 315 315 315 315 316 317 317 316 316 317 318 317 314 316 315 313 313 313 310 312 309 307 305
311 311 311 311 310 310 310 310 310 310 310 309 307 307 311 315 309 316 315 314 312 312 314 314 314 316 316 317 317 318 316 316 317 316 316 315 313 315 311 313 313 310 309 307 305
313 313 311 311 311 311 311 311 310 310 309 308 307 307 312 317 314 315 313 312 311 312 314 314 314 316 317 318 318 317 316 316 315 314 314 314 313 313 312 310 309 310 308 307 306
311 310 310 309 310 311 311 311 311 310 309 308 307 308 312 314 313 315 313 311 311 312 313 313 314 314 316 316 316 316 316 314 314 314 313 314 313 314 312 311 310 310 308 306 307
314 313 313 311 306 305 307 311 311 310 309 307 307 310 317 310 313 313 312 311 312 312 312 313 314 314 315 318 315 315 316 312 313 313 314 313 314 313 313 313 311 310 309 307 306
314 314 313 312 311 308 305 305 307 309 309 307 310 314 310 313 313 312 311 311 311 311 312 313 314 314 316 315 315 315 314 315 314 313 314 313 315 313 311 310 311 309 307 307 307
315 314 314 313 312 310 307 306 305 306 307 310 313 317 313 313 312 313 312 311 310 311 312 312 314 313 315 313 313 312 313 314 315 313 313 313 314 313 311 309 311 308 309 308 307
315 315 314 314 313 309 307 306 306 308 313 315 316 315 312 313 314 312 311 311 311 311 312 312 311 312 312 311 313 312 313 313 313 314 313 312 313 313 311 311 310 308 306 307 309
316 316 315 315 314 310 310 309 309 311 315 310 311 311 313 313 313 311 311 311 312 312 311 311 311 312 311 313 312 311 311 311 313 313 315 314 315 314 313 310 309 311 311 309 310
317 317 316 316 313 313 311 311 310 310 307 308 308 311 313 314 313 312 310 310 311 312 312 313 313 312 311 311 313 313 313 313 313 312 312 312 313 313 311 313 313 312 310 310 310
318 317 316 317 314 312 313 310 309 311 311 310 308 307 308 313 312 313 309 309 310 310 311 312 312 314 314 314 314 313 312 313 312 312 310 311 312 312 311 312 312 312 312 311 311
320 318 317 318 315 313 312 309 309 310 304 308 309 311 311 311 310 310 309 309 310 311 310 311 312 312 312 313 313 314 311 312 313 313 314 311 314 311 312 311 311 312 311 311 308
322 320 317 316 316 313 312 309 308 309 307 310 309 310 311 308 308 309 307 309 310 311 311 312 312 311 312 312 311 314 312 311 313 313 313 314 315 314 311 310 310 310 311 310 307
323 322 319 316 314 317 313 308 309 305 308 309 309 310 311 311 310 307 308 307 308 310 309 309 310 312 311 310 310 310 312 311 310 309 314 313 314 312 310 311 310 311 310 309 308
322 321 319 317 315 314 309 310 316 309 308 311 310 311 311 312 311 308 308 308 308 310 308 308 309 309 310 312 309 310 311 313 312 312 315 310 312 314 311 309 309 310 310 309 306
320 320 319 318 315 314 310 314 323 318 312 311 311 310 311 311 312 309 309 308 306 308 309 310 310 309 308 311 310 309 312 313 311 312 313 308 311 311 310 311 308 308 308 306 305
316 318 316 319 316 314 313 317 325 322 318 319 319 313 311 311 309 311 308 308 308 307 310 310 311 309 308 309 310 310 312 311 314 298 309 313 310 309 309 308 307 306 305 305 304
313 315 315 318 316 311 313 322 322 318 319 315 321 318 317 312 311 312 311 309 310 308 310 310 312 309 307 307 307 309 308 312 312 313 311 313 311 312 310 310 309 307 304 303 303
312 317 316 316 312 312 315 315 317 316 316 319 321 319 316 318 310 310 311 310 308 310 310 309 311 312 306 307 310 307 309 309 310 312 315 314 313 309 308 307 309 307 304 302 303
312 315 313 313 315 313 317 315 315 316 313 316 309 314 319 320 322 322 321 316 310 310 313 311 312 315 312 307 305 308 310 311 313 313 310 312 313 312 310 306 308 308 305 304 303
311 313 311 313 318 318 313 314 314 316 316 316 317 315 316 316 318 317 316 316 316 315 313 314 313 317 316 313 306 307 307 308 310 311 314 315 314 312 310 307 306 304 303 303 303
305 310 311 309 313 316 316 316 316 313 314 315 316 316 317 319 318 319 317 314 311 310 313 313 312 316 319 316 312 312 310 308 310 312 312 312 313 311 311 311 311 311 310 310 306
301 303 306 308 311 312 314 314 315 314 314 314 315 315 316 318 318 318 316 315 312 311 313 314 315 315 314 314 314 314 315 313 313 313 316 315 313 311 310 310 309 309 309 306 306
300 300 301 301 304 308 308 311 312 311 311 312 312 308 307 311 314 316 314 314 315 311 312 312 316 316 316 314 314 316 314 313 314 314 314 313 314 312 313 313 313 313 312 308 308
297 298 300 298 299 300 301 304 306 305 306 305 304 304 304 304 306 305 303 303 305 310 313 313 314 316 317 314 314 316 315 315 314 313 314 315 313 311 311 311 312 312 311 310 309
Wind_Speed
10 11 11 11 11 12 12 12 13 13 14 13 12 10 8 9 10 8 7 7 7 10 5 5 4 5 3 2 2 2 2 3 5 3 2 5 4 2 4 2 2 5 3 3 23
10 11 11 11 11 12 12 12 13 13 13 14 14 12 8 7 8 13 15 9 10 8 10 10 4 7 1 3 2 3 3 6 4 3 2 3 5 7 3 4 4 3 2 17 34
11 11 11 12 11 12 12 13 13 14 14 13 14 12 8 6 3 6 5 19 11 10 8 6 4 6 3 3 4 5 6 4 4 2 4 2 2 6 7 7 8 11 9 15 19
13 13 13 12 12 12 13 13 13 14 14 14 14 12 7 2 5 2 2 12 13 11 8 5 3 4 4 5 6 5 9 8 6 3 1 3 5 5 9 11 7 12 12 16 17
15 16 16 15 14 14 13 14 14 15 15 15 15 11 3 1 9 8 5 11 12 12 8 5 4 4 4 4 3 6 5 7 7 7 6 2 10 7 11 9 10 7 9 17 16
16 19 20 20 19 18 16 16 16 16 16 17 15 8 3 5 7 7 9 12 12 14 9 8 6 6 5 5 4 3 4 7 7 9 6 7 5 4 9 8 15 10 12 13 18
19 22 25 21 20 20 21 20 19 19 19 18 13 5 3 14 8 8 10 11 13 10 3 12 4 4 1 4 2 3 7 9 9 9 8 6 10 14 23 5 10 12 12 11 17
17 20 23 22 21 20 20 19 19 19 19 17 6 6 7 7 10 11 12 9 12 14 7 2 5 2 3 3 4 3 1 4 3 6 4 9 16 13 14 9 16 13 11 10 15
15 17 21 23 25 23 19 17 17 18 14 7 5 4 8 3 7 12 14 6 9 6 5 4 6 6 0 3 4 4 6 8 10 10 6 6 11 11 8 9 13 11 14 12 12
14 16 19 24 26 25 20 15 12 8 2 3 2 2 4 4 4 9 12 11 3 6 2 3 2 3 1 4 9 8 7 7 10 3 4 7 16 17 9 6 10 10 10 12 15
13 15 18 22 26 22 22 5 5 2 2 8 6 5 4 3 5 5 5 7 3 2 7 5 4 10 23 16 9 5 7 7 16 9 7 15 18 20 18 11 13 18 18 14 20
14 14 15 20 21 13 10 4 3 2 8 10 15 9 18 10 5 6 11 7 6 7 5 3 13 18 6 7 12 11 15 14 12 13 10 12 19 18 10 15 16 16 17 19 19
13 14 14 17 14 8 6 4 6 1 3 8 8 7 8 16 9 8 14 5 6 6 10 18 8 16 14 12 9 18 12 20 18 11 6 9 12 12 11 15 13 17 19 18 20
14 13 12 16 2 13 2 8 4 1 3 7 4 3 2 3 4 1 20 9 5 14 8 11 13 13 7 8 14 22 10 11 8 3 14 5 20 9 7 14 13 19 18 21 15
15 13 12 6 8 5 7 9 4 2 7 5 2 3 2 6 2 2 2 1 5 3 5 9 3 8 14 24 10 23 6 9 2 5 5 5 8 4 9 9 11 16 18 18 14
13 14 12 7 5 5 8 7 1 4 8 4 3 2 3 2 1 3 3 3 1 3 6 11 1 4 7 2 6 2 1 0 2 2 13 9 10 4 7 11 7 15 16 16 15
12 8 16 12 3 4 3 4 3 5 6 4 4 4 1 4 3 5 5 5 5 1 5 4 14 9 5 4 2 3 5 4 4 0 12 12 11 23 7 6 11 14 16 17 6
11 10 10 20 16 6 4 4 9 7 9 3 1 5 8 8 7 7 5 4 7 3 3 3 14 11 8 20 10 10 13 6 8 8 18 5 9 6 12 13 11 15 14 7 9
8 8 6 15 19 15 3 4 6 6 7 3 8 5 6 6 7 6 8 7 9 17 10 6 10 1 3 1 10 4 6 13 2 2 3 11 14 9 4 10 9 15 7 8 10
5 5 9 13 26 15 2 15 8 7 0 3 10 8 7 3 2 5 7 4 6 15 20 7 12 7 1 1 2 5 0 2 2 4 8 16 13 17 15 18 17 8 11 10 7
4 3 6 21 24 3 6 8 5 6 5 6 11 9 7 5 5 5 9 8 5 2 7 5 6 19 4 7 9 1 4 5 2 4 15 19 17 4 10 9 9 9 11 10 9
4 4 19 32 4 3 11 5 5 11 6 9 4 8 13 15 15 18 24 21 9 4 2 4 3 4 13 8 7 6 11 14 10 12 5 9 15 28 16 8 7 6 7 7 7
2 2 21 10 8 10 4 7 9 18 16 5 9 10 12 17 11 15 16 23 21 18 6 7 4 5 4 14 5 6 8 7 8 1 15 17 18 26 17 14 5 8 9 7 7
2 3 3 3 5 12 16 18 17 13 20 20 22 12 13 16 17 13 17 11 9 10 11 11 9 12 15 16 7 11 12 7 11 13 23 21 29 29 32 29 28 24 24 26 13
2 4 3 3 9 14 11 7 14 7 9 12 8 26 27 26 26 25 24 26 17 8 8 10 11 19 28 33 32 30 32 32 25 27 23 28 20 26 34 24 26 24 22 12 11
2 2 4 4 5 3 3 9 12 11 7 14 18 8 10 13 19 24 24 20 21 6 21 10 17 18 20 23 28 32 32 32 31 30 26 29 31 37 37 34 35 35 29 16 17
3 3 1 5 3 1 5 7 7 9 6 2 14 14 16 16 14 19 22 19 18 17 16 17 10 16 29 22 23 21 32 35 35 28 25 27 34 36 33 29 31 30 20 16 19
Wind_Direction
0 1 9 9 10 10 10 9 10 7 4 3 2 355 326 293 277 274 239 233 206 219 173 143 168 201 232 265 217 68 51 252 260 260 213 176 156 306 158 152 210 204 169 221 165
345 347 350 354 353 354 356 356 356 356 354 351 351 346 336 319 273 253 255 234 214 188 169 173 191 193 233 228 193 121 159 235 220 291 289 214 176 181 177 214 228 213 64 145 157
336 336 337 338 340 341 342 343 343 343 343 341 340 338 330 326 306 245 268 219 222 204 179 196 216 166 199 171 206 199 214 215 282 325 12 292 255 190 181 239 210 211 183 169 167
337 333 332 328 327 329 330 331 331 331 332 333 333 327 316 316 281 239 228 196 204 198 186 181 199 164 218 218 208 224 239 245 272 245 197 259 295 251 198 226 218 226 190 173 180
337 335 328 324 323 319 317 318 320 320 321 324 325 318 285 239 248 240 216 187 194 188 193 186 179 189 225 235 272 218 253 269 259 257 231 245 254 247 263 258 251 237 158 187 198
335 334 330 325 321 317 311 310 310 309 311 315 319 301 212 241 247 230 199 188 194 189 201 196 204 197 249 243 210 246 257 264 264 253 236 198 257 163 254 228 244 235 222 197 201
347 348 348 341 335 322 311 307 307 307 307 310 308 227 226 237 231 216 205 207 203 205 219 219 202 173 265 281 281 281 310 308 247 241 223 123 286 226 248 222 241 242 235 214 216
335 342 345 349 346 333 321 311 302 298 301 301 288 178 241 222 209 211 198 208 204 213 223 199 178 208 216 278 326 245 203 282 263 161 196 132 264 247 246 194 234 239 238 227 225
327 336 344 350 345 336 322 316 304 290 293 283 159 183 263 167 201 223 206 189 183 185 180 159 138 190 252 134 339 247 239 218 296 190 150 173 247 272 257 194 239 232 235 235 241
318 327 337 344 346 338 326 314 297 294 196 158 287 15 265 243 178 186 193 192 156 130 91 155 164 179 226 134 224 214 224 250 235 206 151 195 244 261 265 276 238 244 236 236 242
314 322 331 340 345 344 344 1 360 7 219 195 187 218 163 177 171 186 187 167 108 147 192 213 155 204 223 206 234 222 258 252 266 260 188 233 241 252 255 252 242 252 256 246 245
306 315 327 337 345 358 358 35 60 301 303 268 256 236 235 199 219 221 170 166 175 211 175 250 221 226 244 206 232 245 257 262 271 260 189 249 245 257 242 247 242 238 244 245 248
297 306 318 338 343 0 356 37 340 305 254 282 222 214 234 177 224 206 154 179 197 209 210 222 219 218 223 239 262 248 252 261 262 292 247 286 271 241 243 243 252 257 250 255 250
286 294 304 336 12 342 339 352 2 323 296 268 233 241 66 116 279 72 185 168 216 226 209 245 236 232 193 216 206 258 219 248 254 255 272 144 291 220 245 242 238 247 252 252 244
274 281 285 312 314 324 318 328 347 106 303 265 223 338 345 164 104 9 49 360 231 221 145 239 221 207 234 237 201 263 224 241 212 236 318 194 277 178 197 241 244 243 245 256 252
266 258 258 262 242 272 316 325 349 43 259 280 139 182 127 340 79 33 67 37 216 293 252 246 337 240 213 149 196 167 139 184 53 81 264 180 205 189 189 215 230 242 255 252 252
285 271 234 208 222 172 56 350 328 206 301 245 225 157 226 199 232 170 162 164 185 259 253 310 230 220 151 192 274 169 87 300 310 2 256 180 218 250 287 255 212 227 239 242 230
284 266 253 226 205 167 128 70 233 203 222 339 201 157 185 169 234 185 167 227 236 194 290 241 284 164 185 206 194 200 202 182 214 254 275 133 246 253 215 236 231 229 231 204 179
315 259 215 242 209 193 113 198 244 191 215 278 332 269 224 226 209 149 205 209 210 188 198 215 262 288 155 144 160 182 171 217 325 85 356 268 271 290 284 267 259 240 243 215 196
296 242 205 248 193 150 162 241 222 209 193 7 267 227 256 270 179 187 195 208 235 187 207 232 265 226 170 166 345 184 224 104 212 204 246 268 272 274 284 271 256 274 228 231 219
246 250 202 188 152 176 211 232 253 217 215 232 246 252 246 266 230 253 223 296 244 122 179 9 292 273 109 194 182 129 259 246 294 202 250 261 271 219 254 249 253 245 236 213 213
215 239 162 156 183 207 231 230 219 248 228 254 261 250 252 265 261 256 256 236 227 132 178 146 201 257 275 278 234 258 236 232 239 255 237 271 264 262 273 280 261 333 274 255 231
253 217 178 176 229 227 224 246 245 258 247 217 238 225 242 249 257 243 250 257 254 250 213 152 210 234 263 289 248 210 200 217 243 246 245 257 262 269 283 281 283 294 272 274 253
294 252 190 237 236 247 252 250 247 228 252 250 253 246 249 242 245 256 248 260 226 222 176 161 196 207 241 244 271 266 272 251 237 252 254 245 260 271 269 265 274 273 254 262 264
235 255 286 230 236 237 238 252 263 281 257 272 235 233 244 254 250 248 247 255 247 204 195 192 237 226 235 242 245 246 254 256 251 245 245 253 247 257 264 275 270 272 266 258 261
274 337 351 309 310 275 220 253 261 285 268 274 270 329 357 303 291 282 288 267 241 238 219 208 242 242 238 229 234 244 252 255 255 254 253 253 262 260 262 262 265 267 268 273 261
272 40 40 276 311 325 259 274 281 310 237 261 330 316 303 302 299 300 291 277 266 295 277 235 225 231 250 231 236 243 235 239 247 247 243 246 241 250 261 260 263 275 287 263 256